Location: *
(46.4833°N, 7.6667°E)
Time: 10:28:28
(UTC+00:00)

Cosmos 2369 Rocket - Pass Details

Date: 27 February 2020
Orbit: 827 x 854 km, 71.0° (Epoch: 29 March)

Event Time Altitude Azimuth Distance (km) Brightness Sun altitude
Rises 18:54:16 0° 248° (WSW) 3,393 6.4 -18.4°
Reaches altitude 10° 18:57:14 10° 263° (W) 2,467 5.8 -18.9°
Maximum altitude 19:01:39 23° 314° (NW) 1,738 4.4 -19.7°
Drops below altitude 10° 19:06:07 10° 6° (N) 2,489 4.7 -20.4°
Sets 19:09:08 0° 21° (NNE) 3,432 5.3 -21.0°
